Lid_Strength_Index
16 15 16 16 16 15 16 16 15 15 14 13 13 12 12 11 11 10 10 9 9 9 8 8 8 7 7
17 17 17 16 16 16 16 16 15 15 14 13 12 12 12 11 11 11 10 10 10 10 10 10 10 9 8
18 17 17 17 17 16 16 16 15 14 14 13 13 12 12 11 11 11 11 10 10 10 10 10 9 9 8
18 18 17 17 17 18 17 15 15 14 14 13 13 12 12 11 11 12 11 11 11 11 11 10 10 9 9
18 18 18 18 18 16 16 15 15 14 14 14 13 13 13 13 13 12 12 12 11 11 10 10 10 9 9
17 18 17 16 16 17 16 17 17 13 15 14 13 14 13 13 12 12 12 12 11 11 11 10 10 10 10
16 16 16 15 15 16 16 16 16 14 14 16 14 15 14 14 13 13 12 12 11 11 11 10 10 10 10
14 14 14 14 14 15 15 15 15 15 14 17 15 16 14 14 12 12 12 11 11 11 11 10 10 10 10
13 14 14 13 14 15 16 17 17 16 14 16 16 15 14 14 13 12 12 11 11 11 11 10 10 10 10
15 15 14 14 13 13 14 17 17 17 15 16 16 16 17 14 14 13 13 12 12 11 11 11 11 11 11
16 15 15 15 15 14 14 14 15 16 14 14 16 16 16 16 15 14 14 13 13 12 11 11 11 11 12
15 16 16 16 15 14 14 14 14 15 14 14 15 16 16 16 17 15 14 13 13 13 13 12 11 11 10
15 15 15 14 14 13 13 13 14 14 14 14 14 14 14 16 16 15 15 14 13 13 13 13 13 13 13
15 14 13 13 14 13 14 14 14 14 13 12 13 14 15 15 15 15 14 16 13 13 13 13 13 12 12
16 15 15 14 14 13 14 14 15 15 14 13 13 12 13 14 15 15 14 14 13 13 13 13 12 10 9
16 16 16 16 15 14 13 14 15 15 15 14 13 14 14 14 12 13 13 13 12 11 10 11 12 9 8
15 16 15 15 15 14 15 14 14 14 14 13 13 14 15 16 12 9 12 11 10 11 10 10 10 10 8